sat.trackr.live / text

‹ back to catalog

KANOPUS-V 6

NORAD 43877 · 2018-111B

PAYLOAD ACTIVE UNKNOWN

§ Identity

Operator
Country
CIS
Launch date
2018-12-27
Launch site
VOSTO
Launch vehicle
Mass (kg)
RCS (m²)

External: N2YO · Heavens-Above · Gunter

§ Orbital elements

Epoch: 2026-09-20T04:58:01.375104Z

Period
93.51 min
Inclination
97.3648°
Eccentricity
0.0001865
Mean motion
15.39992203 rev/d
Perigee alt
444.9 km
Apogee alt
447.4 km
Semi-major
6,824.3 km
B*
2.2235e-4
RAAN
181.0466°
Arg perigee
88.6019°
Mean anomaly
271.5440°
Rev number
43,015

§ Raw data

KANOPUS-V 61 43877U 18111B   26263.20696036  .00008785  00000+0  22235-3 0  99962 43877  97.3648 181.0466 0001865  88.6019 271.5440 15.39992203430155

JSON: /api/v1/satellites/43877 · /tle

For live sub-satellite position, see the globe view (requires WebGL).

§ Visibility from observer

Set your observer location to see the next 7 days of passes ≥ 10°. The values pass through the URL so the page stays shareable.

No JS? Fill the form by hand. The geolocation button needs JavaScript.